Location: Glencliff
(36.1226°N, 86.7183°W)
Time: 20:10:06
(UTC+00:00)

USA 229 - Pass Details

Date: 25 August 2019
Orbit: 1003 x 1209 km, 63.5° (Epoch: 08 October)

Event Time Altitude Azimuth Distance (km) Brightness Sun altitude
Rises 03:05:46 0° 330° (NNW) 3,970 7.8 -29.3°
Reaches altitude 10° 03:08:28 10° 334° (NNW) 3,036 6.9 -29.7°
Maximum altitude 03:15:43 64° 55° (NE) 1,293 3.9 -30.7°
Enters shadow 03:15:58 63° 66° (ENE) 1,298 3.9 -30.7°
